EW9560 Weather Reports


Display with metric or nautical units.
time (UTC)temp
F
wind
direction
speed
MPH
gust
MPH
rain 1hr
in
rain 24hr
in
rain mn
in
humidity
%
barometer
mb
20260506134537 60 249 6.0 23.0 0.00 0.00 0.00 70 1019.4
20260506133035 60 251 6.0 16.0 0.00 0.00 0.00 71 1019.3
20260506131532 59 269 7.0 17.0 0.00 0.00 0.00 71 1019.2
20260506130031 59 274 7.0 17.0 0.00 0.00 0.00 72 1019.1
20260506124537 59 271 6.0 18.0 0.00 0.00 0.00 72 1019.1
20260506121532 59 269 9.0 22.0 0.00 0.00 0.00 72 1018.6
20260506120036 59 273 6.0 14.0 0.00 0.00 0.00 72 1018.6
20260506114534 59 269 7.0 15.0 0.00 0.00 0.00 71 1018.5
20260506113034 60 272 6.0 14.0 0.00 0.00 0.00 71 1018.4
20260506111536 60 266 6.0 16.0 0.00 0.00 0.00 70 1018.3
20260506104535 59 264 7.0 18.0 0.00 0.00 0.00 71 1018.0
20260506103031 60 269 7.0 15.0 0.00 0.00 0.00 72 1017.8
20260506101535 59 273 8.0 17.0 0.00 0.00 0.00 74 1017.8
20260506094537 59 267 8.0 19.0 0.00 0.00 0.00 74 1017.7
20260506091534 59 258 8.0 17.0 0.00 0.00 0.00 74 1017.6
20260506090035 59 250 7.0 15.0 0.00 0.00 0.00 74 1017.5
20260506084535 59 253 6.0 18.0 0.00 0.00 0.00 75 1017.5
20260506073037 59 271 6.0 16.0 0.00 0.00 0.00 75 1017.0
20260506061611 60 268 7.0 20.0 0.00 0.00 0.00 74 1016.5
20260506044535 60 283 10.0 20.0 0.00 0.00 0.00 72 1015.6
20260506041536 60 286 13.0 25.0 0.00 0.00 0.00 71 1015.1
20260506040044 61 286 11.0 24.0 0.00 0.00 0.00 70 1014.9
20260506034534 61 291 11.0 22.0 0.00 0.00 0.00 70 1014.7
20260506033150 61 287 11.0 28.0 0.00 0.00 0.00 69 1014.5
20260506031532 62 284 11.0 26.0 0.00 0.00 0.00 68 1014.2
20260506030037 63 290 11.0 25.0 0.00 0.00 0.00 67 1014.0
20260506024543 63 292 13.0 23.0 0.00 2.56 0.00 66 1013.8
20260506024536 64 289 10.0 23.0 0.00 2.56 0.00 65 1014.0
20260506021537 64 285 9.0 22.0 0.00 2.56 0.00 64 1014.1
20260506011536 67 286 6.0 16.0 0.00 2.56 0.00 60 1013.9
20260506010036 67 270 6.0 14.0 0.00 2.56 0.00 60 1013.8
20260506004535 67 261 8.0 23.0 0.00 2.56 0.00 59 1013.8
20260506003046 68 262 7.0 21.0 0.00 2.56 0.00 58 1013.7
20260506001534 69 263 8.0 21.0 0.00 2.56 0.00 58 1013.6
20260506000109 69 281 9.0 18.0 0.00 2.56 0.00 58 1013.7
20260505233121 70 287 9.0 19.0 0.00 2.56 0.00 56 1013.9
20260505233109 69 287 10.0 18.0 0.00 2.56 0.00 57 1013.9
20260505224537 69 287 12.0 26.0 0.00 2.56 0.00 57 1014.0
20260505223035 69 286 12.0 24.0 0.00 2.56 0.00 57 1014.1
20260505221533 69 289 11.0 24.0 0.00 2.56 0.00 57 1014.3
20260505220033 69 285 11.0 22.0 0.00 2.56 0.00 57 1014.4
20260505213143 68 291 14.0 26.0 0.00 2.56 0.00 57 1014.6
20260505211533 68 287 11.0 25.0 0.00 2.56 0.00 57 1014.6
20260505210148 68 284 11.0 26.0 0.00 2.56 0.00 58 1014.8
20260505204536 68 286 12.0 24.0 0.00 2.56 0.00 58 1014.9
20260505201534 66 285 13.0 26.0 0.00 2.56 0.00 59 1015.1
20260505200037 66 292 14.0 25.0 0.00 2.56 0.00 59 1015.2
20260505194531 66 291 13.0 25.0 0.00 2.56 0.00 59 1015.3
20260505193143 66 285 11.0 22.0 0.00 2.56 0.00 59 1015.4
20260505191534 65 288 13.0 27.0 0.00 2.56 0.00 60 1015.4
20260505184534 64 289 12.0 22.0 0.00 2.56 0.00 62 1015.6
20260505183035 64 290 12.0 24.0 0.00 2.56 0.00 63 1015.7
20260505181611 63 290 14.0 24.0 0.00 2.56 0.00 64 1015.8
20260505180149 63 289 12.0 24.0 0.00 2.56 0.00 65 1015.7
20260505173035 62 287 12.0 29.0 0.00 2.56 0.00 67 1015.7
20260505171649 62 287 11.0 24.0 0.00 2.56 0.00 67 1015.8
20260505170035 61 291 11.0 22.0 0.00 2.56 0.00 68 1015.8
20260505164531 61 279 10.0 22.0 0.00 2.56 0.00 69 1015.7
20260505163032 60 284 10.0 20.0 0.00 2.56 0.00 70 1015.6
20260505161543 60 288 10.0 22.0 0.00 2.56 0.00 71 1015.7
20260505153034 59 279 7.0 15.0 0.00 2.56 0.00 74 1015.8
20260505151536 58 264 8.0 17.0 0.00 2.56 0.00 76 1015.6
20260505150108 58 276 8.0 17.0 0.00 2.56 0.00 76 1015.6